Osceola Municipal, IA

4:15 AM CST on November 20, 2017 (GMT -0600)
Osceola Municipal

Weather History for KI75 - January, 2013

Change the Weather History Date:

Friday, January 18, 2013

  Actual Average (KCNC) Record (KCNC)
Temperature  
Mean Temperature 44 °F -  
Max Temperature 57 °F 30 °F 61 °F (1951)
Min Temperature 30 °F 13 °F -12 °F (1970)
Degree Days  
Heating Degree Days 22    
Moisture  
Dew Point 29 °F    
Average Humidity 61    
Maximum Humidity 82    
Minimum Humidity 37    
Precipitation  
Precipitation 0.00 in - - ()
Sea Level Pressure  
Sea Level Pressure 30.06 in    
Wind  
Wind Speed 15 mph (SSW)    
Max Wind Speed 31 mph    
Max Gust Speed 41 mph    
Visibility 10 miles    
Events      
Averages and records for this station are not official NWS values.
T = Trace of Precipitation, MM = Missing Value Source: NWS Daily Summary

Daily Weather History Graph

Daily Weather History Graph

Search for Another Location

Airport or City:

Trip Planner

Search our weather history database for the weather conditions in past years. The results will help you decide how hot, cold, wet, or windy it might be!

Date:

Astronomy

Jan. 18, 2013 Rise Set
Actual Time 7:36 AM CST 5:14 PM CST
Civil Twilight 7:05 AM CST 5:45 PM CST
Nautical Twilight 6:32 AM CST 6:18 PM CST
Astronomical Twilight 5:59 AM CST 6:51 PM CST
Moon 11:10 AM CST (1/18) 12:09 AM CST (1/18)
Length of Visible Light 10h 39m
Length of Day
9h 38m
Waxing Crescent, 47% of the Moon is Illuminated
Jan 18
Waxing Crescent
Jan 18
First Quarter
Jan 26
Full
Feb 3
Last Quarter
Feb 10
New

Hourly Weather History & Observations

Time (CST) Temp. Windchill Dew Point Humidity Pressure Visibility Wind Dir Wind Speed Gust Speed Precip Events Conditions
12:15 AM 30.2 °F 22.6 °F 23.9 °F 77% 30.34 in 10.0 mi South 8.1 mph - N/A   Clear
12:35 AM 31.1 °F 23.7 °F 23.9 °F 75% 30.34 in 10.0 mi South 8.1 mph - N/A   Clear
12:55 AM 30.4 °F 22.2 °F 23.5 °F 76% 30.33 in 10.0 mi South 9.2 mph - N/A   Clear
1:15 AM 30.9 °F 22.2 °F 23.4 °F 74% 30.33 in 10.0 mi South 10.4 mph - N/A   Clear
1:35 AM 31.1 °F 21.4 °F 23.2 °F 72% 30.32 in 10.0 mi South 12.7 mph - N/A   Clear
1:55 AM 31.1 °F 21.9 °F 23.4 °F 73% 30.31 in 10.0 mi South 11.5 mph - N/A   Clear
2:15 AM 30.9 °F 21.2 °F 23.5 °F 74% 30.30 in 10.0 mi South 12.7 mph - N/A   Clear
2:35 AM 30.9 °F 20.7 °F 23.9 °F 75% 30.29 in 10.0 mi South 13.8 mph - N/A   Clear
2:55 AM 31.1 °F 21.4 °F 24.4 °F 76% 30.28 in 10.0 mi South 12.7 mph - N/A   Clear
3:15 AM 31.5 °F 22.3 °F 24.8 °F 76% 30.28 in 10.0 mi South 11.5 mph - N/A   Clear
3:35 AM 31.5 °F 22.9 °F 25.3 °F 78% 30.27 in 10.0 mi South 10.4 mph - N/A   Clear
3:55 AM 32.0 °F 22.1 °F 25.9 °F 78% 30.25 in 10.0 mi South 13.8 mph - N/A   Clear
4:15 AM 32.4 °F 21.7 °F 26.4 °F 79% 30.23 in 10.0 mi South 16.1 mph - N/A   Clear
4:35 AM 32.9 °F 23.2 °F 26.6 °F 78% 30.23 in 10.0 mi South 13.8 mph - N/A   Clear
4:55 AM 32.4 °F 21.3 °F 26.6 °F 79% 30.22 in 10.0 mi South 17.3 mph - N/A   Clear
5:15 AM 32.4 °F 22.5 °F 26.6 °F 79% 30.21 in 10.0 mi South 13.8 mph 20.7 mph N/A   Clear
5:35 AM 32.0 °F 21.2 °F 26.6 °F 80% 30.20 in 10.0 mi South 16.1 mph 21.9 mph N/A   Clear
5:55 AM 32.0 °F 21.6 °F 26.6 °F 80% 30.20 in 10.0 mi South 15.0 mph - N/A   Clear
6:15 AM 32.0 °F 21.2 °F 26.6 °F 80% 30.18 in 10.0 mi South 16.1 mph - N/A   Clear
6:35 AM 32.2 °F 21.8 °F 27.0 °F 81% 30.18 in 10.0 mi South 15.0 mph - N/A   Clear
6:55 AM 32.2 °F 21.4 °F 27.1 °F 82% 30.16 in 10.0 mi South 16.1 mph - N/A   Clear
7:15 AM 32.4 °F 21.7 °F 27.3 °F 82% 30.16 in 10.0 mi South 16.1 mph 23.0 mph N/A   Clear
7:35 AM 32.7 °F 22.5 °F 27.5 °F 81% 30.16 in 10.0 mi South 15.0 mph - N/A   Clear
7:55 AM 33.3 °F 22.1 °F 27.7 °F 80% 30.14 in 10.0 mi South 18.4 mph 24.2 mph N/A   Clear
8:15 AM 34.7 °F 23.7 °F 28.2 °F 77% 30.14 in 10.0 mi South 19.6 mph 25.3 mph N/A   Clear
8:35 AM 35.2 °F 24.7 °F 28.6 °F 77% 30.14 in 10.0 mi South 18.4 mph 23.0 mph N/A   Clear
8:55 AM 36.5 °F 26.3 °F 29.1 °F 75% 30.14 in 10.0 mi South 18.4 mph - N/A   Clear
9:15 AM 38.1 °F 28.1 °F 29.7 °F 72% 30.13 in 10.0 mi South 19.6 mph 25.3 mph N/A   Clear
9:55 AM 41.2 °F 31.6 °F 30.4 °F 65% 30.10 in 10.0 mi South 21.9 mph 26.5 mph N/A   Clear
10:15 AM 43.2 °F 34.7 °F 31.1 °F 62% 30.09 in 10.0 mi South 19.6 mph 29.9 mph N/A   Clear
10:35 AM 44.6 °F 36.6 °F 31.1 °F 59% 30.08 in 10.0 mi South 19.6 mph 25.3 mph N/A   Clear
10:55 AM 47.1 °F - 31.3 °F 54% 30.06 in 10.0 mi SSW 21.9 mph 34.5 mph N/A   Clear
11:15 AM 49.8 °F - 30.7 °F 48% 30.05 in 10.0 mi SSW 27.6 mph 33.4 mph N/A   Clear
11:35 AM 51.3 °F - 30.7 °F 45% 30.03 in 10.0 mi SSW 31.1 mph 35.7 mph N/A   Clear
11:55 AM 51.1 °F - 29.8 °F 44% 30.01 in 10.0 mi SSW 26.5 mph 39.1 mph N/A   Clear
12:15 PM 51.6 °F - 30.6 °F 45% 29.99 in 10.0 mi SSW 24.2 mph 33.4 mph N/A   Clear
12:35 PM 52.2 °F - 30.7 °F 44% 29.96 in 10.0 mi SSW 26.5 mph 38.0 mph N/A   Clear
12:55 PM 53.6 °F - 30.7 °F 42% 29.94 in 10.0 mi SSW 24.2 mph 34.5 mph N/A   Clear
1:15 PM 54.5 °F - 30.2 °F 39% 29.93 in 10.0 mi SSW 31.1 mph 41.4 mph N/A   Clear
1:35 PM 55.6 °F - 30.0 °F 38% 29.93 in 10.0 mi SSW 27.6 mph 36.8 mph N/A   Clear
1:55 PM 56.1 °F - 30.2 °F 37% 29.92 in 10.0 mi SW 27.6 mph 36.8 mph N/A   Clear
2:15 PM 56.5 °F - 30.6 °F 37% 29.92 in 10.0 mi SSW 25.3 mph 34.5 mph N/A   Clear
2:35 PM 57.0 °F - 30.9 °F 37% 29.92 in 10.0 mi SW 23.0 mph 31.1 mph N/A   Clear
2:55 PM 57.2 °F - 30.7 °F 37% 29.91 in 7.0 mi SW 23.0 mph 35.7 mph N/A   Clear
3:15 PM 56.8 °F - 30.6 °F 37% 29.91 in 10.0 mi SW 24.2 mph 32.2 mph N/A   Clear
3:35 PM 56.7 °F - 30.9 °F 38% 29.91 in 10.0 mi SW 21.9 mph 28.8 mph N/A   Clear
3:55 PM 56.8 °F - 31.1 °F 38% 29.90 in 10.0 mi SW 20.7 mph 25.3 mph N/A   Clear
4:15 PM 57.2 °F - 30.9 °F 37% 29.90 in 10.0 mi SW 19.6 mph 32.2 mph N/A   Clear
4:35 PM 56.5 °F - 30.2 °F 37% 29.91 in 10.0 mi SW 21.9 mph 28.8 mph N/A   Clear
4:55 PM 54.9 °F - 30.9 °F 40% 29.92 in 10.0 mi SW 16.1 mph 23.0 mph N/A   Clear
5:15 PM 53.6 °F - 30.9 °F 42% 29.93 in 10.0 mi SW 11.5 mph - N/A   Clear
5:35 PM 49.3 °F - 31.1 °F 50% 29.93 in 10.0 mi SW 10.4 mph - N/A   Clear
5:55 PM 48.2 °F - 31.1 °F 52% 29.93 in 10.0 mi SSW 11.5 mph - N/A   Clear
6:15 PM 46.8 °F - 31.3 °F 55% 29.93 in 10.0 mi SW 9.2 mph - N/A   Clear
6:35 PM 45.0 °F 41.2 °F 30.7 °F 57% 29.94 in 10.0 mi SW 6.9 mph - N/A   Clear
6:55 PM 43.3 °F 38.1 °F 30.4 °F 60% 29.94 in 10.0 mi SSW 9.2 mph - N/A   Clear
7:15 PM 43.9 °F 39.3 °F 30.7 °F 60% 29.95 in 10.0 mi SW 8.1 mph - N/A   Clear
7:35 PM 43.7 °F 39.1 °F 31.1 °F 61% 29.95 in 10.0 mi SSW 8.1 mph - N/A   Clear
7:55 PM 44.1 °F 38.1 °F 31.5 °F 61% 29.95 in 10.0 mi SW 11.5 mph - N/A   Clear
8:15 PM 46.8 °F - 32.0 °F 57% 29.94 in 10.0 mi SW 15.0 mph 19.6 mph N/A   Clear
8:35 PM 46.6 °F - 32.0 °F 57% 29.94 in 10.0 mi SW 12.7 mph - N/A   Clear
8:55 PM 45.5 °F 39.9 °F 32.0 °F 59% 29.94 in 7.0 mi SW 11.5 mph - N/A   Clear
9:15 PM 44.8 °F 39.4 °F 32.0 °F 61% 29.94 in 10.0 mi SW 10.4 mph - N/A   Clear
9:35 PM 44.8 °F 38.3 °F 32.0 °F 61% 29.93 in 10.0 mi SW 13.8 mph - N/A   Clear
10:15 PM 43.9 °F 37.2 °F 31.8 °F 63% 29.92 in 10.0 mi SW 13.8 mph - N/A   Clear
10:35 PM 43.9 °F 36.8 °F 31.6 °F 62% 29.92 in 10.0 mi SSW 15.0 mph - N/A   Clear
10:55 PM 43.7 °F 36.9 °F 31.5 °F 62% 29.91 in 10.0 mi SSW 13.8 mph - N/A   Clear
11:15 PM 43.5 °F 37.1 °F 31.5 °F 63% 29.91 in 10.0 mi SSW 12.7 mph - N/A   Clear
11:35 PM 43.5 °F 36.7 °F 31.3 °F 62% 29.91 in 10.0 mi SSW 13.8 mph - N/A   Clear
11:55 PM 43.2 °F 35.9 °F 31.5 °F 63% 29.90 in 10.0 mi SSW 15.0 mph - N/A   Clear